Location: Newark
(40.7360°N, 74.1730°W)
Time: 20:12:27
(UTC-04:00)

ISS - All Passes

Search period start: 16 October 2017 00:00
Search period end: 26 October 2017 00:00
Orbit: 401 x 408 km, 51.6° (Epoch: 17 October)

Date Brightness Start Highest point End Pass type
(mag) Time Alt. Az. Time Alt. Az. Time Alt. Az.
16 Oct - 11:16:20 10° S 11:18:57 23° SE 11:21:35 10° E daylight
16 Oct - 12:52:11 10° WSW 12:55:16 40° NNW 12:58:23 10° NE daylight
16 Oct - 14:30:34 10° NW 14:32:25 14° N 14:34:16 10° NNE daylight
16 Oct - 16:08:08 10° NNW 16:09:57 14° N 16:11:46 10° NE daylight
16 Oct - 17:44:02 10° NW 17:47:08 38° NNE 17:50:13 10° E daylight
16 Oct - 19:20:45 10° WNW 19:23:29 25° SW 19:26:13 10° S visible
17 Oct - 10:25:35 10° SSE 10:26:54 12° SE 10:28:13 10° ESE daylight
17 Oct - 11:59:42 10° WSW 12:02:57 73° NW 12:06:12 10° NE daylight
17 Oct - 13:37:37 10° WNW 13:39:53 17° NNW 13:42:09 10° NNE daylight
17 Oct - 15:15:52 10° NNW 15:17:23 13° N 15:18:53 10° NNE daylight
17 Oct - 16:51:56 10° NW 16:54:44 25° NNE 16:57:31 10° E daylight
17 Oct - 18:28:10 10° WNW 18:31:21 48° SW 18:34:31 10° SE daylight
18 Oct - 11:07:31 10° SW 11:10:42 57° SE 11:13:54 10° ENE daylight
18 Oct - 12:44:43 10° WNW 12:47:23 23° NNW 12:50:04 10° NNE daylight
18 Oct - 14:23:19 10° NNW 14:24:46 12° N 14:26:14 10° NNE daylight
18 Oct - 15:59:52 10° NNW 16:02:14 18° NNE 16:04:38 10° ENE daylight
18 Oct - 17:35:50 10° NW 17:39:08 85° NE 17:42:24 10° SE daylight
18 Oct - 19:14:39 10° WSW 19:15:07 10° SW 19:15:35 10° SW visible
19 Oct - 10:15:41 10° SSW 10:18:32 28° SE 10:21:23 10° ENE daylight
19 Oct - 11:51:56 10° W 11:54:57 34° NNW 11:57:58 10° NE daylight
19 Oct - 13:30:27 10° NW 13:32:10 13° N 13:33:53 10° NNE daylight
19 Oct - 15:07:44 10° NNW 15:09:42 15° NNE 15:11:39 10° NE daylight
19 Oct - 16:43:37 10° NW 16:46:48 46° NNE 16:49:58 10° ESE daylight
19 Oct - 18:20:36 10° W 18:23:04 20° SW 18:25:30 10° S daylight
20 Oct - 09:24:27 10° SSE 09:26:25 15° SE 09:28:23 10° E daylight
20 Oct - 10:59:21 10° WSW 11:02:33 58° NNW 11:05:48 10° NE daylight
20 Oct - 12:37:28 10° NW 12:39:34 16° NNW 12:41:41 10° NNE daylight
20 Oct - 14:15:29 10° NNW 14:17:05 13° N 14:18:41 10° NE daylight
20 Oct - 15:51:29 10° NW 15:54:23 28° NNE 15:57:17 10° E daylight
20 Oct - 17:27:50 10° WNW 17:30:54 38° SW 17:33:58 10° SSE daylight
21 Oct - 10:07:01 10° SW 10:10:15 74° SE 10:13:30 10° ENE daylight
21 Oct - 11:44:29 10° WNW 11:47:01 20° NNW 11:49:34 10° NNE daylight
21 Oct - 13:23:00 10° NNW 13:24:27 12° N 13:25:53 10° NNE daylight
21 Oct - 14:59:21 10° NNW 15:01:53 20° NNE 15:04:25 10° ENE daylight
21 Oct - 16:35:24 10° NW 16:38:40 77° SW 16:41:55 10° SE daylight
22 Oct - 09:15:00 10° SSW 09:18:00 36° SE 09:21:02 10° ENE daylight
22 Oct - 10:51:37 10° W 10:54:31 29° NNW 10:57:26 10° NE daylight
22 Oct - 12:30:12 10° NW 12:31:48 13° N 12:33:24 10° NNE daylight
22 Oct - 14:07:13 10° NNW 14:09:19 16° NNE 14:11:24 10° NE daylight
22 Oct - 15:43:06 10° NW 15:46:20 56° NNE 15:49:33 10° ESE daylight
22 Oct - 17:20:25 10° W 17:22:30 16° SW 17:24:34 10° S daylight
23 Oct - 08:23:28 10° S 08:25:50 19° SE 08:28:13 10° E daylight
23 Oct - 09:58:55 10° WSW 10:02:04 47° NNW 10:05:14 10° NE daylight
23 Oct - 11:37:11 10° NW 11:39:09 15° NNW 11:41:07 10° NNE daylight
23 Oct - 13:15:00 10° NNW 13:16:41 13° N 13:18:22 10° NE daylight
23 Oct - 14:50:53 10° NW 14:53:54 33° NNE 14:56:54 10° E daylight
23 Oct - 16:27:25 10° WNW 16:30:20 30° SW 16:33:14 10° SSE daylight
24 Oct - 09:06:27 10° SW 09:09:41 88° NW 09:12:57 10° NE daylight
24 Oct - 10:44:09 10° WNW 10:46:33 19° NNW 10:48:56 10° NNE daylight
24 Oct - 12:22:33 10° NNW 12:24:01 12° N 12:25:27 10° NNE daylight
24 Oct - 13:58:44 10° NNW 14:01:24 22° NNE 14:04:03 10° ENE daylight
24 Oct - 15:34:51 10° WNW 15:38:05 60° SW 15:41:19 10° SE daylight
25 Oct - 08:14:16 10° SSW 08:17:23 46° SE 08:20:31 10° ENE daylight
25 Oct - 09:51:11 10° W 09:53:59 25° NNW 09:56:46 10° NE daylight
25 Oct - 11:29:48 10° NNW 11:31:19 13° N 11:32:49 10° NNE daylight
25 Oct - 13:06:33 10° NNW 13:08:48 17° NNE 13:11:02 10° ENE daylight
25 Oct - 14:42:29 10° NW 14:45:44 70° NE 14:48:59 10° ESE daylight
25 Oct - 16:20:19 10° WSW 16:21:49 13° SW 16:23:18 10° SSW daylight
